SCP
0 0 0 0 0 0 0 0 0 0 0 0 0 0 0 0 -0 0 0 -0 0 0 0 0 0 0 0 0 0 0 0 0 0 0 0 0 0 0 0 0 0 0 0 0 0 0 0
0 0 0 0 0 0 0 0 0 0 0 0 0 0 0 0 0 0 0 -0 0 0 0 0 0 0 0 0 0 0 0 0 0 0 0 0 0 0 0 0 0 0 0 0 0 0 0
0 0 0 0 0 0 0 0 0 0 0 0 0 0 0 0 0 0 -0 -0 0 0 0 0 0 0 0 0 0 0 0 0 0 0 0 0 0 0 0 0 0 0 0 0 0 0 0
0 0 0 0 0 0 0 0 0 0 0 0 0 0 0 0 0 0 -0 -0 -0 -0 0 0 0 0 0 0 0 0 0 0 0 0 0 0 0 0 0 0 0 0 0 0 0 0 0
0 0 0 0 0 0 0 0 0 0 0 0 0 0 0 0 0 0 -0 -0 0 -0 0 0 0 0 0 0 0 0 0 0 0 0 -0 0 0 0 0 0 0 0 0 0 0 0 0
0 0 0 0 0 0 0 0 0 0 0 0 0 -0 0 0 -0 0 0 0 0 0 0 0 0 0 0 0 0 -0 0 0 0 0 0 0 0 0 0 0 0 0 0 0 0 0 0
0 0 0 0 0 0 0 0 0 0 0 0 0 -0 0 0 -0 0 0 0 0 0 0 0 0 0 0 0 0 -0 0 -0 0 0 0 0 0 0 0 0 0 0 0 0 0 0 0
0 0 0 0 0 0 0 0 0 0 0 0 0 -0 -0 0 0 0 0 0 0 0 0 0 0 0 0 0 0 0 -0 -0 -0 0 0 0 0 0 0 0 0 0 0 0 0 0 0
0 0 0 0 0 0 0 0 0 0 -0 0 -0 0 -0 0 0 0 -0 0 -0 -0 0 0 0 0 0 0 0 0 0 -0 -0 0 0 0 0 0 0 0 0 0 0 0 0 0 0
0 0 0 0 0 0 0 0 0 0 -0 0 -0 0 -0 0 0 0 0 0 0 0 0 0 0 0 0 -0 0 0 0 0 0 0 0 0 0 0 0 0 0 0 0 0 0 0 0
0 0 0 0 0 0 0 0 0 0 0 0 -0 0 0 0 0 0 0 0 0 0 0 0 0 0 0 -0 0 0 0 0 0 0 0 0 0 0 0 0 0 0 0 0 0 0 0
0 0 0 0 0 0 0 0 0 0 0 -0 -0 0 0 0 0 0 0 0 0 0 0 0 0 0 0 0 0 0 0 0 0 0 0 0 0 0 0 0 0 0 0 0 0 0 0
0 0 0 0 0 0 0 0 0 0 -0 -0 -0 0 0 0 0 0 0 0 0 0 0 0 0 0 0 0 0 0 0 0 0 0 0 0 0 0 0 0 0 0 0 0 0 0 0
0 0 0 0 0 0 0 0 0 0 0 -0 -0 0 0 0 0 0 0 0 0 0 0 0 0 0 0 0 0 0 0 0 0 0 0 0 0 0 0 0 0 0 0 0 0 0 0
0 0 0 0 0 0 0 0 0 0 0 -0 0 0 0 0 0 0 0 0 0 0 0 0 0 0 0 0 0 0 0 0 0 0 0 0 0 0 0 0 0 0 -0 0 0 0 0
0 0 0 0 0 0 0 0 0 0 0 0 0 0 0 0 0 0 0 0 0 0 0 0 0 0 0 0 0 0 0 0 0 0 0 0 0 0 0 0 0 0 0 0 0 0 0
0 0 0 0 0 0 0 0 0 0 0 0 0 0 0 0 0 0 0 0 0 0 0 0 0 0 0 0 0 0 0 0 0 0 0 0 0 0 0 0 0 0 -0 0 0 0 0
0 0 0 0 0 0 0 0 0 0 0 0 0 0 0 0 0 0 0 0 0 0 0 0 0 0 0 0 0 0 0 0 0 0 0 0 0 0 0 0 0 0 -0 -0 0 0 0
0 0 0 0 0 0 0 0 0 0 0 0 0 0 0 0 0 0 0 0 0 0 0 0 0 0 0 0 0 0 0 0 0 0 0 0 0 0 0 0 0 0 -0 0 0 0 0
0 0 0 0 0 0 0 0 0 0 0 0 0 0 0 0 0 0 0 0 0 0 0 0 0 0 0 0 0 0 0 0 0 0 0 0 0 0 0 0 0 0 0 0 0 0 0
0 0 0 0 0 0 0 0 0 0 0 0 0 0 0 0 0 0 0 0 0 0 0 0 0 0 0 0 0 0 0 0 0 0 0 0 0 0 0 0 0 0 0 0 0 0 0
0 0 0 0 0 0 0 0 0 0 0 0 0 0 0 0 0 0 0 0 0 0 0 0 0 0 0 0 0 0 0 0 0 0 0 0 0 0 0 0 0 0 0 0 0 0 0
0 0 0 0 0 0 0 0 0 0 0 0 0 0 0 0 0 0 0 0 0 0 0 0 0 0 0 0 0 0 0 0 0 0 0 0 0 0 0 0 0 0 0 0 0 0 0
0 0 0 0 0 0 0 0 0 0 0 0 0 0 0 0 0 0 0 0 0 0 0 0 0 0 0 0 0 0 0 0 0 0 0 0 0 0 0 0 0 0 0 0 0 0 0
0 0 0 0 0 0 0 0 0 0 0 0 0 0 0 0 0 0 0 0 0 0 0 0 0 0 0 0 0 0 0 0 0 0 0 0 0 0 0 0 0 0 0 0 0 -0 0
0 0 0 0 0 0 0 0 0 0 0 0 0 0 0 0 0 0 0 0 0 0 0 0 0 0 0 0 0 0 0 0 0 0 0 0 0 0 0 0 0 0 0 0 0 0 0
0 0 0 0 0 0 0 0 0 0 0 0 0 0 0 0 0 0 0 0 0 0 0 0 0 0 0 0 0 0 0 0 0 0 0 0 0 0 0 0 0 0 0 0 0 0 0
0 0 0 0 0 0 0 0 0 0 0 0 0 0 0 0 0 0 0 0 0 0 0 0 0 0 0 0 0 0 0 0 0 0 0 0 0 0 0 0 0 0 0 0 0 0 0
0 0 0 0 0 0 0 0 0 0 0 0 0 0 0 0 0 0 0 0 0 0 0 0 0 0 0 0 0 0 0 0 0 0 0 0 0 0 0 0 0 0 0 0 0 0 0
Wind_Speed_500mb
33 33 33 32 27 21 22 26 29 32 36 38 40 42 46 48 45 51 51 39 33 31 26 19 28 35 31 30 29 33 31 25 18 7 11 14 17 15 11 11 35 42 38 63 69 62 55
32 33 32 29 20 18 20 24 28 32 36 40 41 43 46 48 44 49 49 34 34 31 29 38 40 30 23 22 32 30 34 22 18 22 13 14 14 21 28 27 27 33 41 43 47 45 48
31 34 33 28 16 16 19 23 28 32 36 40 43 45 48 48 44 49 44 30 28 30 28 30 30 42 62 31 25 37 44 25 17 16 21 18 18 16 20 21 32 31 26 28 22 25 23
29 30 31 23 14 15 18 23 28 33 38 42 44 47 50 47 42 45 37 26 28 28 34 32 27 32 23 35 24 38 59 29 22 15 16 17 15 23 22 25 26 22 15 12 6 13 16
29 30 27 15 13 15 20 24 29 34 39 43 45 48 49 45 40 43 33 18 35 24 30 39 19 14 11 39 48 55 57 40 40 19 11 7 8 7 16 9 11 9 23 21 20 27 27
28 27 26 11 11 15 20 24 29 34 39 42 45 47 48 46 36 41 32 10 27 40 18 21 31 14 41 39 50 56 66 35 36 41 16 5 5 2 13 11 14 15 16 23 28 21 29
25 26 22 10 11 15 21 25 30 35 40 44 47 46 44 43 33 38 36 6 4 18 60 43 29 22 23 26 35 62 70 33 43 47 17 28 13 10 12 8 10 13 8 16 19 13 16
24 22 18 8 11 15 20 25 31 36 41 45 46 44 42 40 27 40 42 19 17 21 27 29 44 38 31 20 37 68 59 26 27 25 18 14 13 7 11 20 20 20 7 9 11 27 16
20 18 9 8 10 16 21 26 31 36 42 47 48 44 40 35 16 42 41 30 22 27 12 12 27 48 54 17 42 57 53 26 12 25 22 8 12 20 20 14 23 17 4 14 16 13 10
24 17 7 7 10 17 22 28 32 37 43 46 46 45 42 32 8 33 33 22 14 18 9 16 19 27 61 12 19 52 54 18 19 16 16 9 29 24 15 13 25 14 12 14 21 13 6
21 17 7 9 11 17 23 28 34 38 41 45 44 40 37 26 18 33 29 14 20 9 8 9 11 23 39 28 14 42 43 27 18 20 14 14 16 24 16 17 22 17 27 13 25 24 7
19 17 7 8 12 17 23 28 34 39 41 42 40 34 27 27 26 31 23 12 11 6 2 10 7 16 13 25 20 30 36 22 26 9 15 9 22 12 5 31 23 22 14 26 11 5 1
19 17 9 9 12 17 23 28 34 38 40 39 34 25 27 31 28 27 18 7 8 12 9 12 9 12 11 11 12 23 10 24 9 10 15 9 17 14 6 33 22 10 12 7 8 7 3
20 17 14 8 15 18 23 29 35 38 37 38 26 9 32 25 20 20 11 9 17 7 5 7 7 14 9 16 10 19 17 6 20 11 4 10 13 19 34 9 16 25 4 5 8 12 14
20 20 9 13 17 18 23 29 34 36 37 33 18 9 29 17 10 12 6 14 5 2 4 10 12 11 11 15 11 16 13 12 14 17 6 6 9 36 32 22 14 13 10 9 7 7 3
16 21 7 25 19 19 24 29 33 35 35 25 10 6 28 18 7 8 13 11 6 6 4 6 7 8 10 12 14 14 6 16 13 20 9 9 13 15 19 18 21 12 10 10 7 6 8
18 18 7 27 20 20 25 29 32 33 30 15 2 1 18 11 8 26 8 8 9 10 9 8 4 7 8 6 7 11 10 11 18 15 14 8 6 15 11 13 10 12 9 8 5 3 5
23 21 9 26 22 21 25 30 31 32 23 7 1 5 14 17 16 11 5 11 9 6 15 12 8 9 4 7 5 7 6 9 30 19 4 4 3 8 6 13 27 18 8 6 5 12 4
21 10 14 26 22 23 24 28 29 29 19 5 6 6 19 6 8 5 8 7 8 5 10 6 7 10 8 5 5 6 10 13 29 17 12 9 4 7 2 9 2 11 11 9 7 4 4
20 16 19 19 21 23 23 26 26 23 11 2 6 5 15 24 21 15 12 5 8 16 13 8 9 13 9 7 6 5 11 8 17 27 25 6 1 7 5 5 3 6 15 17 7 3 7
22 26 23 18 23 22 23 25 24 19 6 6 5 3 3 3 9 11 10 3 7 5 9 15 7 9 7 0 9 4 7 10 9 22 14 8 4 4 1 5 7 5 10 10 6 3 7
31 26 17 17 24 20 21 23 20 15 5 7 10 12 15 18 22 17 7 3 6 6 7 4 9 1 2 10 11 8 4 1 3 14 9 11 5 4 3 7 6 3 6 6 3 4 4
31 21 17 18 25 20 22 23 19 13 9 7 14 20 17 12 9 9 6 9 7 13 10 15 11 6 7 7 1 4 5 10 8 6 4 6 3 6 5 8 4 9 7 4 8 5 9
29 25 24 22 21 22 21 20 15 10 11 13 24 27 12 3 6 7 9 8 10 8 14 6 13 11 9 1 16 14 14 12 6 4 0 4 5 2 4 6 6 9 7 9 10 17 12
29 30 26 22 22 21 19 17 12 7 6 14 30 14 13 6 19 13 19 12 18 11 6 8 6 9 3 10 6 6 4 9 6 8 5 6 7 4 5 4 8 9 5 2 7 12 10
37 34 28 22 20 19 16 13 8 5 9 13 27 16 10 29 8 15 13 13 8 6 6 8 7 5 10 5 5 5 4 6 9 15 5 8 10 7 7 6 7 10 5 17 14 8 15
35 41 31 23 19 17 16 12 9 8 11 16 18 19 10 18 20 28 8 11 16 9 6 8 7 8 9 3 4 4 5 8 2 2 5 7 7 6 1 3 13 10 20 21 11 11 22
48 40 26 21 18 17 15 12 11 11 11 13 18 15 8 14 29 20 18 16 20 14 8 15 8 1 5 4 6 6 5 8 4 6 8 8 7 5 5 6 10 26 12 11 8 11 18
47 32 27 20 20 17 15 14 13 13 13 11 14 14 15 12 18 20 18 21 16 19 19 17 5 9 10 7 1 6 2 3 6 4 5 4 11 7 15 10 4 48 25 21 29 33 35
Wind_Direction_500mb
5 7 6 5 13 30 38 35 30 25 22 19 16 13 10 7 5 4 3 9 20 19 23 37 94 103 94 77 28 339 350 358 351 291 294 257 237 250 243 242 234 249 256 256 260 264 265
5 3 3 6 23 38 35 29 24 21 17 13 11 11 8 7 5 5 5 21 27 34 57 89 88 85 88 75 6 348 353 346 9 353 256 276 243 251 276 258 255 276 288 280 276 277 280
4 1 0 4 34 38 30 22 18 16 13 9 8 7 7 6 6 6 7 28 39 53 81 97 82 91 65 44 357 8 7 357 345 327 309 251 269 290 297 315 295 316 308 307 307 301 267
360 2 360 5 26 32 24 18 14 11 7 7 5 4 5 7 8 7 8 33 48 73 81 75 69 83 94 23 352 17 11 23 38 16 338 337 261 282 278 276 294 297 282 299 327 335 296
358 356 356 15 21 20 16 12 8 6 5 4 4 2 3 7 8 8 7 57 55 80 80 55 55 104 46 11 18 0 4 358 359 4 286 301 282 287 292 284 298 230 283 299 328 345 343
353 356 353 13 18 12 8 7 4 4 2 2 2 2 2 3 10 10 12 66 76 54 99 84 49 75 25 7 18 357 16 36 18 23 59 21 223 358 9 345 308 347 327 319 331 349 338
350 353 355 1 11 4 4 2 1 1 360 360 0 0 0 0 5 12 19 104 69 42 56 76 63 73 12 12 25 25 11 43 37 36 25 342 62 30 346 333 280 302 266 271 313 307 3
344 352 351 355 355 357 359 357 359 358 357 356 357 1 359 358 357 10 22 74 86 128 76 62 54 43 23 18 23 20 19 40 38 29 2 10 71 1 9 22 19 15 342 338 318 336 315
335 348 352 338 344 347 353 354 355 357 355 354 354 357 0 359 352 8 19 54 118 130 103 73 37 29 9 14 35 5 10 11 31 17 352 65 5 357 349 23 9 352 285 307 277 305 267
330 331 348 316 334 339 348 348 350 357 352 350 351 354 1 5 7 1 15 29 132 142 92 346 3 12 20 52 31 4 9 32 21 7 355 14 334 346 359 23 7 324 309 329 330 341 258
326 317 338 306 327 335 343 345 347 351 348 348 350 356 358 13 12 8 360 27 143 137 27 348 18 7 35 70 333 4 29 63 49 27 47 306 341 343 38 6 337 258 313 303 302 285 286
316 315 300 298 317 333 339 341 344 344 346 347 348 356 4 4 6 8 9 70 119 58 299 352 47 341 28 39 8 355 42 50 48 46 9 304 340 359 30 351 305 310 328 317 287 198 70
309 308 286 294 315 329 333 336 339 342 345 345 345 355 6 6 3 12 18 65 49 75 343 360 335 340 26 13 347 6 45 47 48 16 8 337 319 335 28 345 323 1 346 334 322 350 0
293 300 273 300 310 323 329 334 336 340 344 342 339 343 15 10 359 8 23 59 68 58 2 22 319 321 58 13 6 352 357 79 31 56 338 9 332 360 320 283 282 297 204 234 277 305 293
290 294 278 305 300 319 325 330 335 340 344 343 341 352 8 22 15 12 75 53 111 70 359 330 332 42 350 11 0 8 8 33 38 38 99 342 258 312 308 316 1 328 333 290 300 268 321
277 284 319 292 297 313 321 325 338 342 344 346 351 19 14 27 35 85 71 106 104 65 358 8 51 45 6 5 11 8 11 22 360 16 16 266 303 283 313 349 20 52 345 25 356 340 307
263 276 304 283 291 306 314 328 339 344 343 343 357 10 12 18 89 61 89 98 119 78 64 75 44 349 57 3 305 334 20 77 1 334 332 340 141 296 344 24 354 3 14 353 183 83 272
263 274 308 277 286 300 315 332 338 344 347 342 127 47 6 13 54 60 75 131 111 40 48 51 75 77 57 339 325 14 71 34 350 5 6 272 209 288 336 105 92 68 15 95 98 325 317
254 252 264 268 285 295 318 329 338 342 350 11 84 35 24 11 112 90 102 83 94 66 62 60 64 68 22 326 38 24 18 43 34 19 357 351 331 315 280 174 100 58 30 345 268 206 245
241 260 250 259 277 293 316 324 336 338 341 86 117 59 37 57 96 112 116 106 126 58 76 71 102 73 37 10 27 307 351 10 354 16 8 31 22 168 245 271 336 16 10 357 329 49 318
239 236 236 252 271 289 314 321 332 329 298 179 104 118 112 112 44 87 90 75 120 96 48 47 86 80 158 74 349 10 26 323 22 9 23 72 184 127 238 112 85 76 5 11 48 242 195
230 239 232 247 269 290 310 317 323 313 259 212 134 139 89 103 105 89 68 230 128 98 89 111 112 342 288 145 171 226 36 155 257 326 25 4 282 83 218 153 127 148 360 338 27 326 321
231 222 219 247 267 296 306 314 317 304 231 194 139 139 135 147 129 93 206 163 130 119 51 113 153 109 102 127 172 193 168 103 136 155 331 69 82 44 291 216 112 356 243 277 292 201 163
215 209 214 240 266 289 298 310 306 290 247 224 171 154 119 172 99 147 137 122 119 112 159 124 126 121 151 94 131 116 111 98 96 55 185 106 77 98 217 41 7 244 204 196 236 246 228
210 219 205 228 258 279 294 301 298 292 240 198 180 170 135 115 133 115 126 118 110 119 138 133 143 157 192 141 73 29 350 15 298 234 282 140 114 0 117 195 296 317 234 137 104 284 212
210 205 200 224 257 271 287 283 278 239 185 181 183 188 152 129 218 140 135 154 152 163 10 154 171 164 154 131 101 140 215 212 296 336 130 80 84 108 33 116 214 236 225 154 131 313 212
210 192 191 224 246 259 271 255 245 212 189 180 190 182 149 107 153 157 152 169 155 141 143 152 167 140 182 101 87 140 245 168 267 183 315 350 354 122 357 224 289 229 157 161 68 248 201
192 177 194 224 234 248 248 233 225 209 192 185 184 185 170 118 152 178 170 156 156 174 148 153 94 194 65 83 131 214 126 225 90 215 187 178 131 225 75 53 304 163 126 153 207 238 264
174 166 198 215 229 238 223 215 211 205 194 182 183 181 143 130 139 153 167 173 187 171 153 155 153 146 154 90 34 99 122 100 157 269 354 326 185 191 176 218 217 190 220 253 269 274 282
Wind_Speed_850mb
33 33 33 32 27 21 22 26 29 32 36 38 40 42 46 48 45 51 51 39 33 31 26 19 28 35 31 30 29 33 31 25 18 7 11 14 17 15 11 11 35 42 38 63 69 62 55
32 33 32 29 20 18 20 24 28 32 36 40 41 43 46 48 44 49 49 34 34 31 29 38 40 30 23 22 32 30 34 22 18 22 13 14 14 21 28 27 27 33 41 43 47 45 48
31 34 33 28 16 16 19 23 28 32 36 40 43 45 48 48 44 49 44 30 28 30 28 30 30 42 62 31 25 37 44 25 17 16 21 18 18 16 20 21 32 31 26 28 22 25 23
29 30 31 23 14 15 18 23 28 33 38 42 44 47 50 47 42 45 37 26 28 28 34 32 27 32 23 35 24 38 59 29 22 15 16 17 15 23 22 25 26 22 15 12 6 13 16
29 30 27 15 13 15 20 24 29 34 39 43 45 48 49 45 40 43 33 18 35 24 30 39 19 14 11 39 48 55 57 40 40 19 11 7 8 7 16 9 11 9 23 21 20 27 27
28 27 26 11 11 15 20 24 29 34 39 42 45 47 48 46 36 41 32 10 27 40 18 21 31 14 41 39 50 56 66 35 36 41 16 5 5 2 13 11 14 15 16 23 28 21 29
25 26 22 10 11 15 21 25 30 35 40 44 47 46 44 43 33 38 36 6 4 18 60 43 29 22 23 26 35 62 70 33 43 47 17 28 13 10 12 8 10 13 8 16 19 13 16
24 22 18 8 11 15 20 25 31 36 41 45 46 44 42 40 27 40 42 19 17 21 27 29 44 38 31 20 37 68 59 26 27 25 18 14 13 7 11 20 20 20 7 9 11 27 16
20 18 9 8 10 16 21 26 31 36 42 47 48 44 40 35 16 42 41 30 22 27 12 12 27 48 54 17 42 57 53 26 12 25 22 8 12 20 20 14 23 17 4 14 16 13 10
24 17 7 7 10 17 22 28 32 37 43 46 46 45 42 32 8 33 33 22 14 18 9 16 19 27 61 12 19 52 54 18 19 16 16 9 29 24 15 13 25 14 12 14 21 13 6
21 17 7 9 11 17 23 28 34 38 41 45 44 40 37 26 18 33 29 14 20 9 8 9 11 23 39 28 14 42 43 27 18 20 14 14 16 24 16 17 22 17 27 13 25 24 7
19 17 7 8 12 17 23 28 34 39 41 42 40 34 27 27 26 31 23 12 11 6 2 10 7 16 13 25 20 30 36 22 26 9 15 9 22 12 5 31 23 22 14 26 11 5 1
19 17 9 9 12 17 23 28 34 38 40 39 34 25 27 31 28 27 18 7 8 12 9 12 9 12 11 11 12 23 10 24 9 10 15 9 17 14 6 33 22 10 12 7 8 7 3
20 17 14 8 15 18 23 29 35 38 37 38 26 9 32 25 20 20 11 9 17 7 5 7 7 14 9 16 10 19 17 6 20 11 4 10 13 19 34 9 16 25 4 5 8 12 14
20 20 9 13 17 18 23 29 34 36 37 33 18 9 29 17 10 12 6 14 5 2 4 10 12 11 11 15 11 16 13 12 14 17 6 6 9 36 32 22 14 13 10 9 7 7 3
16 21 7 25 19 19 24 29 33 35 35 25 10 6 28 18 7 8 13 11 6 6 4 6 7 8 10 12 14 14 6 16 13 20 9 9 13 15 19 18 21 12 10 10 7 6 8
18 18 7 27 20 20 25 29 32 33 30 15 2 1 18 11 8 26 8 8 9 10 9 8 4 7 8 6 7 11 10 11 18 15 14 8 6 15 11 13 10 12 9 8 5 3 5
23 21 9 26 22 21 25 30 31 32 23 7 1 5 14 17 16 11 5 11 9 6 15 12 8 9 4 7 5 7 6 9 30 19 4 4 3 8 6 13 27 18 8 6 5 12 4
21 10 14 26 22 23 24 28 29 29 19 5 6 6 19 6 8 5 8 7 8 5 10 6 7 10 8 5 5 6 10 13 29 17 12 9 4 7 2 9 2 11 11 9 7 4 4
20 16 19 19 21 23 23 26 26 23 11 2 6 5 15 24 21 15 12 5 8 16 13 8 9 13 9 7 6 5 11 8 17 27 25 6 1 7 5 5 3 6 15 17 7 3 7
22 26 23 18 23 22 23 25 24 19 6 6 5 3 3 3 9 11 10 3 7 5 9 15 7 9 7 0 9 4 7 10 9 22 14 8 4 4 1 5 7 5 10 10 6 3 7
31 26 17 17 24 20 21 23 20 15 5 7 10 12 15 18 22 17 7 3 6 6 7 4 9 1 2 10 11 8 4 1 3 14 9 11 5 4 3 7 6 3 6 6 3 4 4
31 21 17 18 25 20 22 23 19 13 9 7 14 20 17 12 9 9 6 9 7 13 10 15 11 6 7 7 1 4 5 10 8 6 4 6 3 6 5 8 4 9 7 4 8 5 9
29 25 24 22 21 22 21 20 15 10 11 13 24 27 12 3 6 7 9 8 10 8 14 6 13 11 9 1 16 14 14 12 6 4 0 4 5 2 4 6 6 9 7 9 10 17 12
29 30 26 22 22 21 19 17 12 7 6 14 30 14 13 6 19 13 19 12 18 11 6 8 6 9 3 10 6 6 4 9 6 8 5 6 7 4 5 4 8 9 5 2 7 12 10
37 34 28 22 20 19 16 13 8 5 9 13 27 16 10 29 8 15 13 13 8 6 6 8 7 5 10 5 5 5 4 6 9 15 5 8 10 7 7 6 7 10 5 17 14 8 15
35 41 31 23 19 17 16 12 9 8 11 16 18 19 10 18 20 28 8 11 16 9 6 8 7 8 9 3 4 4 5 8 2 2 5 7 7 6 1 3 13 10 20 21 11 11 22
48 40 26 21 18 17 15 12 11 11 11 13 18 15 8 14 29 20 18 16 20 14 8 15 8 1 5 4 6 6 5 8 4 6 8 8 7 5 5 6 10 26 12 11 8 11 18
47 32 27 20 20 17 15 14 13 13 13 11 14 14 15 12 18 20 18 21 16 19 19 17 5 9 10 7 1 6 2 3 6 4 5 4 11 7 15 10 4 48 25 21 29 33 35
Wind_Direction_850mb
5 7 6 5 13 30 38 35 30 25 22 19 16 13 10 7 5 4 3 9 20 19 23 37 94 103 94 77 28 339 350 358 351 291 294 257 237 250 243 242 234 249 256 256 260 264 265
5 3 3 6 23 38 35 29 24 21 17 13 11 11 8 7 5 5 5 21 27 34 57 89 88 85 88 75 6 348 353 346 9 353 256 276 243 251 276 258 255 276 288 280 276 277 280
4 1 0 4 34 38 30 22 18 16 13 9 8 7 7 6 6 6 7 28 39 53 81 97 82 91 65 44 357 8 7 357 345 327 309 251 269 290 297 315 295 316 308 307 307 301 267
360 2 360 5 26 32 24 18 14 11 7 7 5 4 5 7 8 7 8 33 48 73 81 75 69 83 94 23 352 17 11 23 38 16 338 337 261 282 278 276 294 297 282 299 327 335 296
358 356 356 15 21 20 16 12 8 6 5 4 4 2 3 7 8 8 7 57 55 80 80 55 55 104 46 11 18 0 4 358 359 4 286 301 282 287 292 284 298 230 283 299 328 345 343
353 356 353 13 18 12 8 7 4 4 2 2 2 2 2 3 10 10 12 66 76 54 99 84 49 75 25 7 18 357 16 36 18 23 59 21 223 358 9 345 308 347 327 319 331 349 338
350 353 355 1 11 4 4 2 1 1 360 360 0 0 0 0 5 12 19 104 69 42 56 76 63 73 12 12 25 25 11 43 37 36 25 342 62 30 346 333 280 302 266 271 313 307 3
344 352 351 355 355 357 359 357 359 358 357 356 357 1 359 358 357 10 22 74 86 128 76 62 54 43 23 18 23 20 19 40 38 29 2 10 71 1 9 22 19 15 342 338 318 336 315
335 348 352 338 344 347 353 354 355 357 355 354 354 357 0 359 352 8 19 54 118 130 103 73 37 29 9 14 35 5 10 11 31 17 352 65 5 357 349 23 9 352 285 307 277 305 267
330 331 348 316 334 339 348 348 350 357 352 350 351 354 1 5 7 1 15 29 132 142 92 346 3 12 20 52 31 4 9 32 21 7 355 14 334 346 359 23 7 324 309 329 330 341 258
326 317 338 306 327 335 343 345 347 351 348 348 350 356 358 13 12 8 360 27 143 137 27 348 18 7 35 70 333 4 29 63 49 27 47 306 341 343 38 6 337 258 313 303 302 285 286
316 315 300 298 317 333 339 341 344 344 346 347 348 356 4 4 6 8 9 70 119 58 299 352 47 341 28 39 8 355 42 50 48 46 9 304 340 359 30 351 305 310 328 317 287 198 70
309 308 286 294 315 329 333 336 339 342 345 345 345 355 6 6 3 12 18 65 49 75 343 360 335 340 26 13 347 6 45 47 48 16 8 337 319 335 28 345 323 1 346 334 322 350 0
293 300 273 300 310 323 329 334 336 340 344 342 339 343 15 10 359 8 23 59 68 58 2 22 319 321 58 13 6 352 357 79 31 56 338 9 332 360 320 283 282 297 204 234 277 305 293
290 294 278 305 300 319 325 330 335 340 344 343 341 352 8 22 15 12 75 53 111 70 359 330 332 42 350 11 0 8 8 33 38 38 99 342 258 312 308 316 1 328 333 290 300 268 321
277 284 319 292 297 313 321 325 338 342 344 346 351 19 14 27 35 85 71 106 104 65 358 8 51 45 6 5 11 8 11 22 360 16 16 266 303 283 313 349 20 52 345 25 356 340 307
263 276 304 283 291 306 314 328 339 344 343 343 357 10 12 18 89 61 89 98 119 78 64 75 44 349 57 3 305 334 20 77 1 334 332 340 141 296 344 24 354 3 14 353 183 83 272
263 274 308 277 286 300 315 332 338 344 347 342 127 47 6 13 54 60 75 131 111 40 48 51 75 77 57 339 325 14 71 34 350 5 6 272 209 288 336 105 92 68 15 95 98 325 317
254 252 264 268 285 295 318 329 338 342 350 11 84 35 24 11 112 90 102 83 94 66 62 60 64 68 22 326 38 24 18 43 34 19 357 351 331 315 280 174 100 58 30 345 268 206 245
241 260 250 259 277 293 316 324 336 338 341 86 117 59 37 57 96 112 116 106 126 58 76 71 102 73 37 10 27 307 351 10 354 16 8 31 22 168 245 271 336 16 10 357 329 49 318
239 236 236 252 271 289 314 321 332 329 298 179 104 118 112 112 44 87 90 75 120 96 48 47 86 80 158 74 349 10 26 323 22 9 23 72 184 127 238 112 85 76 5 11 48 242 195
230 239 232 247 269 290 310 317 323 313 259 212 134 139 89 103 105 89 68 230 128 98 89 111 112 342 288 145 171 226 36 155 257 326 25 4 282 83 218 153 127 148 360 338 27 326 321
231 222 219 247 267 296 306 314 317 304 231 194 139 139 135 147 129 93 206 163 130 119 51 113 153 109 102 127 172 193 168 103 136 155 331 69 82 44 291 216 112 356 243 277 292 201 163
215 209 214 240 266 289 298 310 306 290 247 224 171 154 119 172 99 147 137 122 119 112 159 124 126 121 151 94 131 116 111 98 96 55 185 106 77 98 217 41 7 244 204 196 236 246 228
210 219 205 228 258 279 294 301 298 292 240 198 180 170 135 115 133 115 126 118 110 119 138 133 143 157 192 141 73 29 350 15 298 234 282 140 114 0 117 195 296 317 234 137 104 284 212
210 205 200 224 257 271 287 283 278 239 185 181 183 188 152 129 218 140 135 154 152 163 10 154 171 164 154 131 101 140 215 212 296 336 130 80 84 108 33 116 214 236 225 154 131 313 212
210 192 191 224 246 259 271 255 245 212 189 180 190 182 149 107 153 157 152 169 155 141 143 152 167 140 182 101 87 140 245 168 267 183 315 350 354 122 357 224 289 229 157 161 68 248 201
192 177 194 224 234 248 248 233 225 209 192 185 184 185 170 118 152 178 170 156 156 174 148 153 94 194 65 83 131 214 126 225 90 215 187 178 131 225 75 53 304 163 126 153 207 238 264
174 166 198 215 229 238 223 215 211 205 194 182 183 181 143 130 139 153 167 173 187 171 153 155 153 146 154 90 34 99 122 100 157 269 354 326 185 191 176 218 217 190 220 253 269 274 282